Hourly Data Report for September 11, 2017

All times are specified in Local Standard Time (LST). Add 1 hour to adjust for Daylight Saving Time where and when it is observed.

RANKIN INLET A
NUNAVUT

62°48'38.000" N
92°06'53.000" W
32.30 m
2303405
71083
YRT

Download Data

Hourly Data (September 2017)
Hourly Data Report for September 11, 2017
Temp Definition
°C
Dew Point Temp Definition
°C
Rel Hum Definition
%
Wind Dir Definition
10's deg

Wind Spd Definition
km/h
Visibility Definition
km
Stn Press Definition
kPa
Hmdx Definition


Wind Chill Definition


Weather Definition


TIME
00:00 Legend Double Dagger 4.5 3.4 93 9 50 12.9 99.57     Rain
01:00 Legend Double Dagger 4.6 3.7 94 9 64 12.9 99.34     Rain
02:00 Legend Double Dagger 4.8 3.9 93 9 46 6.4 99.46     Rain,Fog
03:00 Legend Double Dagger 4.6 3.9 95 8 49 4.8 99.20     Rain,Fog
04:00 Legend Double Dagger 4.8 4.1 95 9 46 4.8 99.01     Rain,Fog
05:00 Legend Double Dagger 5.1 4.1 93 8 50 6.4 98.81     Rain,Fog
06:00 Legend Double Dagger 5.0 4.3 95 9 50 2.4 98.69     Rain,Fog
07:00 Legend Double Dagger 5.1 4.4 95 9 48 1.6 98.62     Rain,Fog
08:00 Legend Double Dagger 5.1 4.4 95 9 59 1.6 98.54     Rain,Fog
09:00 Legend Double Dagger 5.0 4.3 95 9 61 2.0 98.50     Rain,Fog
10:00 Legend Double Dagger 5.0 4.3 96 9 50 2.4 98.49     Rain,Fog
11:00 Legend Double Dagger 5.2 4.4 94 8 52 3.2 98.54     Rain,Fog
12:00 Legend Double Dagger 5.5 4.5 93 8 55 3.2 98.57     Rain,Fog
13:00 Legend Double Dagger 5.7 4.4 92 7 48 3.2 98.63     Rain,Fog
14:00 Legend Double Dagger 5.5 4.4 92 6 40 3.6 98.68     Rain,Fog
15:00 Legend Double Dagger 5.1 3.9 92 6 49 4.0 98.74     Rain,Fog
16:00 Legend Double Dagger 4.7 3.4 91 5 52 4.0 98.83     Rain,Fog
17:00 Legend Double Dagger 4.5 2.8 88 5 50 6.4 98.94     Fog
18:00 Legend Double Dagger 4.2 2.5 89 5 46 8.1 99.06     Fog
19:00 Legend Double Dagger 3.7 2.3 91 5 40 8.1 99.13     Fog
20:00 Legend Double Dagger 3.5 2.4 93 3 47 8.1 99.20     Rain,Fog
21:00 Legend Double Dagger 3.2 1.8 90 3 46 9.7 99.25     Rain,Fog
22:00 Legend Double Dagger 2.5 1.0 90 2 46 9.7 99.32     Rain,Fog
23:00 Legend Double Dagger 2.3 0.8 90 2 50 9.7 99.35     Rain,Fog

Notes on Data Quality.

Legend

  • E = Estimated
  • M = Missing
  • NA = Not Available
  • ‡ = Partner data that is not subject to review by the National Climate Archives
Date modified: